Location: Go�ngahuizen
(53.0821°N, 5.8849°E)
Time: 23:41:15
(UTC+00:00)

ATLAS 2AS CENTAUR R/B - Pass Details

Date: 09 April 2020
Orbit: 929 x 1283 km, 63.7° (Epoch: 21 May)

Event Time Altitude Azimuth Distance (km) Brightness Sun altitude
Rises 19:55:13 0° 313° (NW) 4,176 7.6 -13.0°
Reaches altitude 10° 19:58:24 10° 304° (NW) 3,163 6.7 -13.4°
Maximum altitude 20:04:48 31° 247° (WSW) 1,894 4.3 -14.2°
Drops below altitude 10° 20:10:47 10° 188° (S) 2,930 4.7 -14.9°
Enters shadow 20:13:01 - 179° (S) 3,628 5.1 -15.2°
